Powrót do katalogu

STARLINK-5304

AktywnyŁącznośćVLEO
NORAD 54843·PAYLOAD·🇺🇸 United States

Wystrzelony Dec 28, 2022 z Cape Canaveral Space Force Station

Loading…

Następne Przeloty (najbliższe 24 godziny)

TLE

ŚwieżeSource: CelesTrak SupGP

Epoka: Sep 15, 2026, 01:47 UTC

1 54843C 22177Z   26258.07479167  .00038192  00000+0  13834-2 0  2588
2 54843  43.0024 143.3969 0001567 276.9139  94.1586 15.27557458    13

Śledź STARLINK-5304 w czasie rzeczywistym z AllMySat

Download on the App Store